IRON29 KCHS-KWRI

Flight info

Callsign IRON29
Flight time 1h 31m
Altitude 37000
Route SWPFX3 FILLI SARKY Q113 AARNN WAVES RAIMY OTT MXE/N0327F170 V3 MAZIE
Aircraft C17/H-SDE1E2FGHIJ5RTUWXY/LB1D1

Departure

Time 2026-05-07 01:01
Airport Charleston International Airport (KCHS)

Arrival

Time 2026-05-07 02:33
Airport Mc Guire Air Force Base (KWRI)
Time Latitude Longitude Altitude Speed Heading
2026-05-07 00:28 32.90393 -80.04565 61 ft 0 kts 237°
2026-05-07 00:55 32.90392 -80.04567 61 ft 2 kts 237°
2026-05-07 00:55 32.90373 -80.04626 61 ft 9 kts 280°
2026-05-07 00:56 32.90438 -80.04687 61 ft 16 kts 327°
2026-05-07 00:56 32.90543 -80.04768 62 ft 13 kts 326°
2026-05-07 00:56 32.90613 -80.04776 62 ft 8 kts 43°
2026-05-07 00:56 32.90646 -80.04728 62 ft 6 kts 51°
2026-05-07 00:57 32.90678 -80.04681 62 ft 8 kts 49°
2026-05-07 00:57 32.90734 -80.04681 62 ft 11 kts 328°
2026-05-07 00:57 32.90819 -80.04745 62 ft 17 kts 327°
2026-05-07 00:57 32.90933 -80.04833 62 ft 20 kts 327°
2026-05-07 00:58 32.91045 -80.04918 63 ft 17 kts 328°
2026-05-07 00:58 32.91141 -80.04988 63 ft 14 kts 336°
2026-05-07 00:58 32.91215 -80.04960 63 ft 10 kts 55°
2026-05-07 00:58 32.91243 -80.04903 63 ft 0 kts 62°
2026-05-07 00:59 32.91254 -80.04881 63 ft 9 kts 59°
2026-05-07 00:59 32.91267 -80.04783 63 ft 13 kts 131°
2026-05-07 00:59 32.91234 -80.04756 63 ft 0 kts 147°
2026-05-07 01:00 32.91233 -80.04756 63 ft 0 kts 147°
2026-05-07 01:00 32.91037 -80.04608 62 ft 67 kts 147°
2026-05-07 01:00 32.90431 -80.04155 61 ft 137 kts 147°
2026-05-07 01:01 32.89498 -80.03412 403 ft 171 kts 147°
2026-05-07 01:01 32.88710 -80.02548 894 ft 159 kts 120°
2026-05-07 01:01 32.88647 -80.01228 1540 ft 172 kts 75°
2026-05-07 01:01 32.89320 -80.00047 2173 ft 178 kts 53°
2026-05-07 01:02 32.90082 -79.98885 2804 ft 180 kts 53°
2026-05-07 01:02 32.90837 -79.97689 3439 ft 183 kts 53°
2026-05-07 01:02 32.91585 -79.96488 4049 ft 185 kts 53°
2026-05-07 01:02 32.92353 -79.95248 4641 ft 189 kts 52°
2026-05-07 01:03 32.93176 -79.93929 4928 ft 217 kts 46°
2026-05-07 01:03 32.94509 -79.93065 5428 ft 222 kts 359°
2026-05-07 01:03 32.96054 -79.93137 5991 ft 235 kts 351°
2026-05-07 01:03 32.97769 -79.93222 6495 ft 254 kts 353°
2026-05-07 01:04 32.99579 -79.93299 6953 ft 261 kts 353°
2026-05-07 01:04 33.01401 -79.93369 7387 ft 270 kts 353°
2026-05-07 01:04 33.03346 -79.93455 7943 ft 286 kts 353°
2026-05-07 01:04 33.05356 -79.93534 8581 ft 293 kts 353°
2026-05-07 01:05 33.07401 -79.93616 9186 ft 293 kts 353°
2026-05-07 01:05 33.09458 -79.93700 9789 ft 298 kts 353°
2026-05-07 01:05 33.11538 -79.93784 10392 ft 299 kts 352°
2026-05-07 01:05 33.13603 -79.93870 10992 ft 300 kts 352°
2026-05-07 01:06 33.15693 -79.93956 11596 ft 301 kts 352°
2026-05-07 01:06 33.17812 -79.94044 12202 ft 304 kts 351°
2026-05-07 01:06 33.19926 -79.94132 12809 ft 306 kts 351°
2026-05-07 01:06 33.22049 -79.94167 13396 ft 313 kts 358°
2026-05-07 01:07 33.24218 -79.93634 14032 ft 321 kts
2026-05-07 01:07 33.26387 -79.93021 14646 ft 322 kts
2026-05-07 01:07 33.28580 -79.92408 15259 ft 324 kts
2026-05-07 01:07 33.30747 -79.91808 15863 ft 325 kts
2026-05-07 01:08 33.32941 -79.91200 16477 ft 326 kts
2026-05-07 01:08 33.35151 -79.90586 17088 ft 327 kts
2026-05-07 01:08 33.37384 -79.89965 17701 ft 327 kts
2026-05-07 01:08 33.39613 -79.89347 18304 ft 330 kts
2026-05-07 01:09 33.41831 -79.88735 18903 ft 331 kts
2026-05-07 01:09 33.44090 -79.88111 19518 ft 332 kts
2026-05-07 01:09 33.46326 -79.87492 20112 ft 332 kts
2026-05-07 01:09 33.48593 -79.86864 20715 ft 332 kts
2026-05-07 01:10 33.50827 -79.86240 21314 ft 330 kts
2026-05-07 01:10 33.53035 -79.85629 21809 ft 331 kts
2026-05-07 01:10 33.55307 -79.85005 22158 ft 336 kts
2026-05-07 01:10 33.57607 -79.84365 22469 ft 344 kts
2026-05-07 01:11 33.59995 -79.83706 22726 ft 352 kts
2026-05-07 01:11 33.62405 -79.83033 22999 ft 360 kts
2026-05-07 01:11 33.64877 -79.82349 23270 ft 368 kts
2026-05-07 01:11 33.67374 -79.81651 23534 ft 376 kts
2026-05-07 01:12 33.69960 -79.80933 23807 ft 383 kts
2026-05-07 01:12 33.72595 -79.80196 24078 ft 390 kts
2026-05-07 01:12 33.75252 -79.79453 24340 ft 396 kts
2026-05-07 01:12 33.77957 -79.78700 24605 ft 403 kts
2026-05-07 01:13 33.80718 -79.77924 24866 ft 409 kts
2026-05-07 01:13 33.83498 -79.77151 25131 ft 415 kts
2026-05-07 01:13 33.86246 -79.75871 25346 ft 438 kts 24°
2026-05-07 01:13 33.88736 -79.73660 25663 ft 447 kts 30°
2026-05-07 01:14 33.91218 -79.71382 25915 ft 451 kts 30°
2026-05-07 01:14 33.93720 -79.69087 26185 ft 455 kts 30°
2026-05-07 01:14 33.96248 -79.66769 26486 ft 456 kts 30°
2026-05-07 01:14 33.98769 -79.64460 26833 ft 455 kts 30°
2026-05-07 01:15 34.01295 -79.62140 27074 ft 456 kts 30°
2026-05-07 01:15 34.03818 -79.59830 27334 ft 455 kts 30°
2026-05-07 01:15 34.06350 -79.57502 27587 ft 458 kts 30°
2026-05-07 01:15 34.08866 -79.55197 27854 ft 457 kts 30°
2026-05-07 01:16 34.11388 -79.52869 28109 ft 455 kts 30°
2026-05-07 01:16 34.13917 -79.50549 28376 ft 454 kts 30°
2026-05-07 01:16 34.16453 -79.48212 28634 ft 454 kts 30°
2026-05-07 01:16 34.18973 -79.45888 28905 ft 453 kts 29°
2026-05-07 01:17 34.21468 -79.43589 29165 ft 455 kts 30°
2026-05-07 01:17 34.23975 -79.41280 29428 ft 452 kts 30°
2026-05-07 01:17 34.26484 -79.38953 29687 ft 451 kts 29°
2026-05-07 01:17 34.29015 -79.36620 29966 ft 451 kts 29°
2026-05-07 01:18 34.31514 -79.34306 30228 ft 451 kts 30°
2026-05-07 01:18 34.34051 -79.31953 30476 ft 451 kts 30°
2026-05-07 01:18 34.36586 -79.29617 30716 ft 451 kts 30°
2026-05-07 01:18 34.39053 -79.27322 30953 ft 449 kts 30°
2026-05-07 01:19 34.41540 -79.25011 31211 ft 448 kts 30°
2026-05-07 01:19 34.44157 -79.22965 31428 ft 435 kts 18°
2026-05-07 01:19 34.46857 -79.21347 31699 ft 433 kts 18°
2026-05-07 01:19 34.49554 -79.19714 31951 ft 431 kts 18°
2026-05-07 01:20 34.52230 -79.18081 32196 ft 430 kts 18°
2026-05-07 01:20 34.54886 -79.16457 32447 ft 428 kts 18°
2026-05-07 01:20 34.57565 -79.14819 32708 ft 426 kts 18°
2026-05-07 01:20 34.60225 -79.13197 32955 ft 424 kts 17°
2026-05-07 01:21 34.62843 -79.11589 33198 ft 422 kts 17°
2026-05-07 01:21 34.65464 -79.09982 33459 ft 419 kts 17°
2026-05-07 01:21 34.68079 -79.08385 33561 ft 421 kts 17°
2026-05-07 01:21 34.70689 -79.06779 33712 ft 420 kts 18°
2026-05-07 01:22 34.73296 -79.05175 33851 ft 420 kts 17°
2026-05-07 01:22 34.75948 -79.03549 34007 ft 420 kts 17°
2026-05-07 01:22 34.78574 -79.01928 34144 ft 420 kts 16°
2026-05-07 01:22 34.81173 -79.00332 34308 ft 419 kts 16°
2026-05-07 01:23 34.83785 -78.98729 34436 ft 418 kts 16°
2026-05-07 01:23 34.86415 -78.97102 34576 ft 418 kts 16°
2026-05-07 01:23 34.89001 -78.95511 34715 ft 417 kts 16°
2026-05-07 01:23 34.91584 -78.93920 34830 ft 416 kts 16°
2026-05-07 01:24 34.94177 -78.92309 35007 ft 415 kts 15°
2026-05-07 01:24 34.96761 -78.90711 35112 ft 413 kts 15°
2026-05-07 01:24 34.99347 -78.89119 35246 ft 412 kts 15°
2026-05-07 01:24 35.01895 -78.87537 35384 ft 410 kts 14°
2026-05-07 01:25 35.04456 -78.85950 35503 ft 408 kts 14°
2026-05-07 01:25 35.06987 -78.84385 35646 ft 406 kts 14°
2026-05-07 01:25 35.09521 -78.82808 35820 ft 403 kts 13°
2026-05-07 01:25 35.12030 -78.81251 35968 ft 401 kts 13°
2026-05-07 01:26 35.14529 -78.79696 36105 ft 399 kts 13°
2026-05-07 01:26 35.16972 -78.78179 36213 ft 396 kts 13°
2026-05-07 01:26 35.19439 -78.76644 36393 ft 392 kts 12°
2026-05-07 01:26 35.21866 -78.75135 36531 ft 389 kts 12°
2026-05-07 01:27 35.24265 -78.73640 36677 ft 385 kts 11°
2026-05-07 01:27 35.26642 -78.72161 36806 ft 382 kts 11°
2026-05-07 01:27 35.28980 -78.70702 36944 ft 378 kts 10°
2026-05-07 01:28 35.33678 -78.67775 36973 ft 377 kts 11°
2026-05-07 01:28 35.36009 -78.66319 36438 ft 384 kts 11°
2026-05-07 01:28 35.38477 -78.64811 35712 ft 397 kts 13°
2026-05-07 01:28 35.40881 -78.63268 36111 ft 389 kts 12°
2026-05-07 01:29 35.43316 -78.61743 36186 ft 387 kts 11°
2026-05-07 01:29 35.45690 -78.60255 36377 ft 384 kts 11°
2026-05-07 01:29 35.48117 -78.58734 36524 ft 387 kts 11°
2026-05-07 01:29 35.50521 -78.57237 36701 ft 389 kts 11°
2026-05-07 01:30 35.52961 -78.55701 36867 ft 391 kts 11°
2026-05-07 01:30 35.55415 -78.54160 36972 ft 395 kts 11°
2026-05-07 01:30 35.57875 -78.52618 36991 ft 402 kts 11°
2026-05-07 01:31 35.62989 -78.49399 36975 ft 417 kts 11°
2026-05-07 01:31 35.68150 -78.46140 36974 ft 418 kts 11°
2026-05-07 01:32 35.73378 -78.42844 36954 ft 421 kts 11°
2026-05-07 01:32 35.78665 -78.39503 36950 ft 423 kts 12°
2026-05-07 01:33 35.83906 -78.36193 36955 ft 423 kts 11°
2026-05-07 01:33 35.89211 -78.32843 36921 ft 434 kts 12°
2026-05-07 01:34 35.94546 -78.29442 36951 ft 425 kts 12°
2026-05-07 01:34 35.99791 -78.26124 36949 ft 425 kts 12°
2026-05-07 01:35 36.05051 -78.22772 36940 ft 425 kts 11°
2026-05-07 01:35 36.10308 -78.19427 36924 ft 425 kts 11°
2026-05-07 01:36 36.15576 -78.16070 36936 ft 424 kts 12°
2026-05-07 01:36 36.20818 -78.12718 36947 ft 425 kts 12°
2026-05-07 01:37 36.26102 -78.09337 36953 ft 425 kts 11°
2026-05-07 01:37 36.31353 -78.05971 36923 ft 426 kts 11°
2026-05-07 01:38 36.36631 -78.02587 36925 ft 427 kts 11°
2026-05-07 01:38 36.39298 -78.01081 36942 ft 411 kts
2026-05-07 01:38 36.41955 -77.99880 36944 ft 410 kts
2026-05-07 01:39 36.47337 -77.97391 36928 ft 411 kts
2026-05-07 01:39 36.52682 -77.94906 36958 ft 411 kts
2026-05-07 01:40 36.58121 -77.92365 36948 ft 410 kts
2026-05-07 01:40 36.63537 -77.89839 36955 ft 411 kts
2026-05-07 01:41 36.68954 -77.87308 36952 ft 413 kts
2026-05-07 01:41 36.74363 -77.84774 36947 ft 413 kts
2026-05-07 01:42 36.79787 -77.82232 36958 ft 415 kts
2026-05-07 01:42 36.85228 -77.79678 36955 ft 416 kts
2026-05-07 01:43 36.90718 -77.77099 36949 ft 416 kts
2026-05-07 01:43 36.96193 -77.74515 36940 ft 416 kts
2026-05-07 01:44 37.01639 -77.71944 36937 ft 417 kts
2026-05-07 01:44 37.07149 -77.69347 36902 ft 419 kts
2026-05-07 01:45 37.12632 -77.66750 36930 ft 417 kts
2026-05-07 01:45 37.18088 -77.64164 36930 ft 417 kts
2026-05-07 01:46 37.23599 -77.61546 36937 ft 419 kts
2026-05-07 01:46 37.29122 -77.58923 36948 ft 420 kts
2026-05-07 01:47 37.34649 -77.56290 36950 ft 422 kts
2026-05-07 01:47 37.40208 -77.53641 36975 ft 423 kts
2026-05-07 01:48 37.45815 -77.50958 36962 ft 425 kts
2026-05-07 01:48 37.51373 -77.48299 36933 ft 424 kts
2026-05-07 01:49 37.56930 -77.45636 36953 ft 422 kts
2026-05-07 01:49 37.59671 -77.44132 36912 ft 440 kts 12°
2026-05-07 01:49 37.62337 -77.42182 36972 ft 443 kts 13°
2026-05-07 01:50 37.67674 -77.38321 36929 ft 443 kts 13°
2026-05-07 01:50 37.73045 -77.34441 36926 ft 446 kts 14°
2026-05-07 01:51 37.78453 -77.30521 36896 ft 445 kts 14°
2026-05-07 01:51 37.83806 -77.26638 36896 ft 445 kts 14°
2026-05-07 01:52 37.89200 -77.22719 36913 ft 444 kts 14°
2026-05-07 01:52 37.94566 -77.18813 36893 ft 446 kts 14°
2026-05-07 01:53 37.99947 -77.14895 36886 ft 447 kts 14°
2026-05-07 01:53 38.05310 -77.10980 36898 ft 446 kts 14°
2026-05-07 01:54 38.10698 -77.07038 36875 ft 447 kts 14°
2026-05-07 01:54 38.16083 -77.03092 36882 ft 447 kts 14°
2026-05-07 01:55 38.21496 -76.99223 36866 ft 434 kts
2026-05-07 01:55 38.24260 -76.97819 36968 ft 423 kts
2026-05-07 01:55 38.27007 -76.96466 36895 ft 425 kts
2026-05-07 01:56 38.32538 -76.93694 36895 ft 427 kts
2026-05-07 01:56 38.38105 -76.90900 36920 ft 428 kts
2026-05-07 01:57 38.43687 -76.88084 36928 ft 427 kts
2026-05-07 01:57 38.49247 -76.85286 36892 ft 428 kts
2026-05-07 01:58 38.54889 -76.82433 36933 ft 429 kts
2026-05-07 01:58 38.60469 -76.79613 36917 ft 429 kts
2026-05-07 01:59 38.66047 -76.76783 36947 ft 428 kts
2026-05-07 01:59 38.71595 -76.73640 36919 ft 453 kts 17°
2026-05-07 02:00 38.76868 -76.69043 36719 ft 464 kts 19°
2026-05-07 02:00 38.79536 -76.66719 36194 ft 469 kts 19°
2026-05-07 02:00 38.82239 -76.64359 35621 ft 464 kts 19°
2026-05-07 02:00 38.84895 -76.62052 35063 ft 468 kts 19°
2026-05-07 02:01 38.87620 -76.59680 34538 ft 476 kts 20°
2026-05-07 02:01 38.90406 -76.57246 34031 ft 478 kts 21°
2026-05-07 02:01 38.93128 -76.54862 33492 ft 479 kts 21°
2026-05-07 02:01 38.95934 -76.52417 33005 ft 483 kts 22°
2026-05-07 02:02 38.98731 -76.49961 32509 ft 485 kts 21°
2026-05-07 02:02 39.01534 -76.47498 32012 ft 481 kts 21°
2026-05-07 02:02 39.04319 -76.45068 31518 ft 489 kts 22°
2026-05-07 02:02 39.07125 -76.42603 31027 ft 489 kts 22°
2026-05-07 02:03 39.09932 -76.40131 30536 ft 488 kts 22°
2026-05-07 02:03 39.12657 -76.37736 30055 ft 489 kts 23°
2026-05-07 02:03 39.15513 -76.35223 29560 ft 496 kts 23°
2026-05-07 02:03 39.18356 -76.32713 29062 ft 493 kts 24°
2026-05-07 02:04 39.21207 -76.30200 28529 ft 496 kts 24°
2026-05-07 02:04 39.24012 -76.27714 28032 ft 494 kts 25°
2026-05-07 02:04 39.26875 -76.25184 27496 ft 490 kts 24°
2026-05-07 02:04 39.29652 -76.22721 26979 ft 484 kts 24°
2026-05-07 02:05 39.32446 -76.20255 26466 ft 481 kts 24°
2026-05-07 02:05 39.35186 -76.17820 25952 ft 477 kts 24°
2026-05-07 02:05 39.37900 -76.15411 25435 ft 474 kts 24°
2026-05-07 02:05 39.40593 -76.13020 24933 ft 467 kts 24°
2026-05-07 02:06 39.43261 -76.10653 24427 ft 465 kts 24°
2026-05-07 02:06 39.45921 -76.08285 23924 ft 463 kts 24°
2026-05-07 02:06 39.48567 -76.05914 23422 ft 456 kts 23°
2026-05-07 02:06 39.51178 -76.03598 22957 ft 450 kts 24°
2026-05-07 02:07 39.53751 -76.01302 22934 ft 450 kts 24°
2026-05-07 02:07 39.58908 -75.96688 22907 ft 451 kts 24°
2026-05-07 02:07 39.61495 -75.94385 22914 ft 454 kts 24°
2026-05-07 02:08 39.64115 -75.92034 22915 ft 456 kts 24°
2026-05-07 02:08 39.66704 -75.89698 22913 ft 450 kts 24°
2026-05-07 02:08 39.69323 -75.87363 22921 ft 455 kts 24°
2026-05-07 02:08 39.71934 -75.85014 22917 ft 457 kts 24°
2026-05-07 02:09 39.74529 -75.82674 22903 ft 450 kts 24°
2026-05-07 02:09 39.77123 -75.80341 22901 ft 445 kts 23°
2026-05-07 02:09 39.79589 -75.78106 22888 ft 425 kts 23°
2026-05-07 02:09 39.81981 -75.75940 22910 ft 408 kts 22°
2026-05-07 02:10 39.84327 -75.73845 22920 ft 411 kts 22°
2026-05-07 02:10 39.86646 -75.71748 22914 ft 412 kts 22°
2026-05-07 02:10 39.89040 -75.69593 22925 ft 413 kts 22°
2026-05-07 02:10 39.91425 -75.67419 22709 ft 424 kts 26°
2026-05-07 02:11 39.93589 -75.64722 22111 ft 439 kts 38°
2026-05-07 02:11 39.95658 -75.61821 21334 ft 428 kts 38°
2026-05-07 02:11 39.97589 -75.59125 20456 ft 389 kts 38°
2026-05-07 02:11 39.99389 -75.56616 19822 ft 367 kts 37°
2026-05-07 02:12 40.01149 -75.54211 19221 ft 366 kts 38°
2026-05-07 02:12 40.02869 -75.51845 18620 ft 356 kts 40°
2026-05-07 02:12 40.04561 -75.49504 18022 ft 354 kts 40°
2026-05-07 02:12 40.06234 -75.47183 17413 ft 351 kts 40°
2026-05-07 02:13 40.07912 -75.44865 16813 ft 350 kts 41°
2026-05-07 02:13 40.09559 -75.42572 16216 ft 345 kts 40°
2026-05-07 02:13 40.11201 -75.40289 15597 ft 345 kts 41°
2026-05-07 02:13 40.12867 -75.37982 14982 ft 339 kts 41°
2026-05-07 02:14 40.14489 -75.35725 14367 ft 338 kts 41°
2026-05-07 02:14 40.16101 -75.33491 13753 ft 340 kts 43°
2026-05-07 02:14 40.17699 -75.31261 13139 ft 326 kts 43°
2026-05-07 02:14 40.19186 -75.29182 12497 ft 305 kts 42°
2026-05-07 02:15 40.20596 -75.27209 12009 ft 291 kts 42°
2026-05-07 02:15 40.22005 -75.25260 11474 ft 297 kts 42°
2026-05-07 02:15 40.23431 -75.23270 10891 ft 305 kts 43°
2026-05-07 02:15 40.24895 -75.21227 10300 ft 311 kts 43°
2026-05-07 02:16 40.26379 -75.19153 9925 ft 307 kts 43°
2026-05-07 02:16 40.27798 -75.17168 9887 ft 290 kts 43°
2026-05-07 02:16 40.29124 -75.15296 9821 ft 276 kts 42°
2026-05-07 02:16 40.30455 -75.13443 9449 ft 278 kts 42°
2026-05-07 02:17 40.31599 -75.11430 9092 ft 278 kts 70°
2026-05-07 02:17 40.31756 -75.09042 8999 ft 270 kts 102°
2026-05-07 02:17 40.31373 -75.06605 8662 ft 270 kts 109°
2026-05-07 02:17 40.30924 -75.04273 8274 ft 263 kts 110°
2026-05-07 02:18 40.30476 -75.01974 7888 ft 259 kts 109°
2026-05-07 02:18 40.30040 -74.99686 7513 ft 255 kts 109°
2026-05-07 02:18 40.29612 -74.97479 7145 ft 252 kts 109°
2026-05-07 02:18 40.29180 -74.95255 6771 ft 251 kts 109°
2026-05-07 02:19 40.28753 -74.93044 6409 ft 249 kts 109°
2026-05-07 02:19 40.28334 -74.90871 6040 ft 247 kts 108°
2026-05-07 02:19 40.27909 -74.88699 5666 ft 244 kts 108°
2026-05-07 02:19 40.27494 -74.86552 5300 ft 243 kts 107°
2026-05-07 02:20 40.27081 -74.84419 5014 ft 239 kts 107°
2026-05-07 02:20 40.26686 -74.82383 4975 ft 221 kts 107°
2026-05-07 02:20 40.26317 -74.80469 5017 ft 221 kts 108°
2026-05-07 02:20 40.25934 -74.78525 5003 ft 222 kts 108°
2026-05-07 02:21 40.25552 -74.76561 5006 ft 221 kts 107°
2026-05-07 02:21 40.25174 -74.74630 5003 ft 220 kts 107°
2026-05-07 02:21 40.24796 -74.72677 5003 ft 223 kts 107°
2026-05-07 02:21 40.24411 -74.70721 4999 ft 224 kts 107°
2026-05-07 02:22 40.24036 -74.68797 4994 ft 219 kts 107°
2026-05-07 02:22 40.23649 -74.66821 4994 ft 222 kts 107°
2026-05-07 02:22 40.23271 -74.64888 4998 ft 221 kts 107°
2026-05-07 02:22 40.22889 -74.62960 5001 ft 221 kts 107°
2026-05-07 02:23 40.22396 -74.61091 4980 ft 214 kts 128°
2026-05-07 02:23 40.21255 -74.60053 4990 ft 192 kts 175°
2026-05-07 02:23 40.19938 -74.59959 4979 ft 185 kts 199°
2026-05-07 02:23 40.19015 -74.60906 5002 ft 171 kts 245°
2026-05-07 02:24 40.19008 -74.62394 4987 ft 170 kts 289°
2026-05-07 02:24 40.19534 -74.63782 5025 ft 172 kts 293°
2026-05-07 02:24 40.20121 -74.65151 5006 ft 172 kts 294°
2026-05-07 02:24 40.20721 -74.66520 5023 ft 175 kts 300°
2026-05-07 02:25 40.21817 -74.67270 4944 ft 184 kts 349°
2026-05-07 02:25 40.23017 -74.66716 4981 ft 194 kts 34°
2026-05-07 02:25 40.23737 -74.65198 4743 ft 202 kts 77°
2026-05-07 02:25 40.23568 -74.63435 4520 ft 194 kts 122°
2026-05-07 02:26 40.22916 -74.61900 4313 ft 194 kts 118°
2026-05-07 02:26 40.22436 -74.60251 4105 ft 201 kts 110°
2026-05-07 02:26 40.22011 -74.58407 3963 ft 213 kts 107°
2026-05-07 02:26 40.21631 -74.56551 3734 ft 213 kts 105°
2026-05-07 02:27 40.21262 -74.54694 3469 ft 211 kts 104°
2026-05-07 02:27 40.20892 -74.52814 3210 ft 209 kts 105°
2026-05-07 02:27 40.20528 -74.50980 3038 ft 216 kts 104°
2026-05-07 02:27 40.19750 -74.49230 2984 ft 223 kts 141°
2026-05-07 02:28 40.18356 -74.48422 3057 ft 217 kts 167°
2026-05-07 02:28 40.16899 -74.47768 2995 ft 219 kts 165°
2026-05-07 02:28 40.15461 -74.47072 3012 ft 221 kts 163°
2026-05-07 02:28 40.14046 -74.46364 3005 ft 219 kts 163°
2026-05-07 02:29 40.12616 -74.45660 3008 ft 217 kts 167°
2026-05-07 02:29 40.11239 -74.45775 2901 ft 181 kts 212°
2026-05-07 02:29 40.10292 -74.46703 2718 ft 167 kts 227°
2026-05-07 02:29 40.09462 -74.47719 2509 ft 159 kts 229°
2026-05-07 02:30 40.08699 -74.48708 2256 ft 148 kts 230°
2026-05-07 02:30 40.07995 -74.49647 2052 ft 146 kts 232°
2026-05-07 02:30 40.07298 -74.50577 1945 ft 129 kts 231°
2026-05-07 02:30 40.06664 -74.51337 1750 ft 125 kts 227°
2026-05-07 02:31 40.06014 -74.52062 1415 ft 120 kts 231°
2026-05-07 02:31 40.05425 -74.52901 942 ft 136 kts 231°
2026-05-07 02:31 40.04829 -74.53764 725 ft 119 kts 229°
2026-05-07 02:31 40.04227 -74.54555 586 ft 124 kts 229°
2026-05-07 02:32 40.03631 -74.55389 519 ft 125 kts 229°
2026-05-07 02:32 40.03041 -74.56250 384 ft 131 kts 230°
2026-05-07 02:32 40.02419 -74.57098 147 ft 126 kts 225°
2026-05-07 02:32 40.01853 -74.57846 121 ft 88 kts 226°
2026-05-07 02:33 40.01696 -74.58065 120 ft 0 kts 227°
2026-05-07 02:33 40.01662 -74.58113 120 ft 9 kts 228°
2026-05-07 02:33 40.01644 -74.58141 120 ft 0 kts 228°
2026-05-07 02:33 40.01529 -74.58300 120 ft 40 kts 226°
2026-05-07 02:34 40.01380 -74.58533 120 ft 29 kts 221°
2026-05-07 02:34 40.01230 -74.58709 120 ft 27 kts 223°
2026-05-07 02:34 40.01095 -74.58877 121 ft 25 kts 225°
2026-05-07 02:34 40.00978 -74.59041 122 ft 23 kts 226°
2026-05-07 02:35 40.00870 -74.59193 123 ft 20 kts 247°
2026-05-07 02:35 40.00933 -74.59320 124 ft 16 kts 313°
2026-05-07 02:35 40.01023 -74.59380 124 ft 14 kts 37°
2026-05-07 02:35 40.01092 -74.59290 123 ft 14 kts 45°
2026-05-07 02:36 40.01172 -74.59185 122 ft 17 kts 45°
2026-05-07 02:36 40.01274 -74.59049 121 ft 23 kts 46°
2026-05-07 02:36 40.01383 -74.58897 120 ft 21 kts 46°
2026-05-07 02:36 40.01483 -74.58767 120 ft 18 kts 44°
2026-05-07 02:37 40.01569 -74.58656 120 ft 16 kts 46°
2026-05-07 02:37 40.01643 -74.58553 120 ft 16 kts 46°
2026-05-07 02:37 40.01730 -74.58435 121 ft 19 kts 44°
2026-05-07 02:37 40.01836 -74.58295 121 ft 23 kts 45°
2026-05-07 02:38 40.01946 -74.58147 121 ft 21 kts 46°
2026-05-07 02:38 40.02061 -74.58082 121 ft 17 kts 332°
2026-05-07 02:38 40.02123 -74.58199 121 ft 14 kts 298°
2026-05-07 02:38 40.02168 -74.58318 122 ft 14 kts 294°
2026-05-07 02:39 40.02224 -74.58396 122 ft 10 kts
2026-05-07 02:39 40.02289 -74.58370 122 ft 9 kts 12°
2026-05-07 02:39 40.02335 -74.58406 122 ft 7 kts 290°
2026-05-07 02:39 40.02345 -74.58446 122 ft 0 kts 288°